User: anonymous   Login
Location: Unspecified
(0.0000°N, 0.0000°E)
Time: 09:32:13
(UTC+01:00)
Language:

DELTA 2 R/B (1) - Orbit

View from above orbital plane
View from above orbital plane
View from above satellite
View from above satellite

Ground track
Ground track

The orbit data is extracted from the following two-line orbital elements,

1 27665U 03005C   16341.15495850  .00000011  00000-0  37964-4 0  9991
2 27665  39.5772  13.1354 0008295  93.2356 326.0904 14.28428391723323
Epoch (UTC): 06 December 2016 03:43:08
Eccentricity: 0.0008295
inclination: 39.5772°
perigee height: 791 km
apogee height: 803 km
right ascension of ascending node: 13.1354°
argument of perigee: 93.2356°
revolutions per day: 14.28428391
mean anomaly at epoch: 326.0904°
orbit number at epoch: 72332

The dashed part of the orbit path shows where the satellite is in the earth's shadow,  

DLR